Flag for U.S.A. Weather past 2 weeks in Rochester, New York, U.S.A.

57 °F

Partly cloudy.

Feels Like: 54 °F
Forecast: 50 / 55 °F
Wind: 15 mph from West

Location: Greater Rochester International Airport

Current Time: Oct 13, 2015 at 11:26:21 PM

Latest Report: Oct 13, 2015 at 10:54 PM

Visibility: 10 mi

Pressure: 29.60 "Hg

Humidity: 74%

Dew point: 49 °F

Location of RochesterLocation

Historic Weather in Rochester — Graph


Rochester temperature yesterday

Maximum temperature yesterday: 77 °F (at 3:54 PM)
Minimum temperature yesterday: 55 °F (at 6:54 AM)
Average temperature yesterday: 65 °F

Past Weeks' High & Low Weather Summary

High77 °F (Oct 12, 3:54 PM)96% (Sep 29, 6:54 PM)30.45 "Hg (Sep 29, 6:54 PM)
Low41 °F (Oct 10, 5:54 AM)29% (Oct 12, 4:54 PM)29.42 "Hg (Oct 13, 4:54 AM)
Average56 °F72%30.06 "Hg
* Reported Sep 28 9:54 PM — Oct 13 9:54 PM, Rochester, Weather by CustomWeather, © 2015

Note: Actual official high and low records may vary slightly from our data, if they occured in-between our weather recording intervals... More about our weather records


Rochester weather history for previous 24 hours

Time TempWeatherWind HumidityBarometerVisibility
9:54 PM
Tue, Oct 13
56 °FPartly cloudy.14 mph81%29.58 "Hg10 mi
8:54 PM57 °FLight rain. Mostly cloudy.15 mph78%29.57 "Hg10 mi
7:54 PM59 °FMostly cloudy.15 mph64%29.56 "Hg10 mi
6:54 PM59 °FMostly cloudy.17 mph64%29.54 "Hg10 mi
5:54 PM60 °FPartly sunny.17 mph60%29.52 "Hg10 mi
4:54 PM60 °FPartly sunny.17 mph60%29.51 "Hg10 mi
3:54 PM62 °FPassing clouds.29 mph54%29.48 "Hg10 mi
2:54 PM63 °FScattered clouds.28 mph54%29.45 "Hg10 mi
1:54 PM61 °FBroken clouds.24 mph62%29.46 "Hg10 mi
12:54 PM62 °FBroken clouds.20 mph65%29.46 "Hg10 mi
11:54 AM59 °FBroken clouds.10 mph84%29.46 "Hg10 mi
10:54 AM64 °FLight rain. Partly sunny.20 mph68%29.44 "Hg4 mi
9:54 AM63 °FBroken clouds.10 mph81%29.44 "Hg10 mi
8:54 AM61 °FMostly cloudy.12 mph87%29.44 "Hg10 mi
7:54 AM60 °FMostly cloudy.14 mph90%29.43 "Hg10 mi
6:54 AM60 °FLight rain. Mostly cloudy.10 mph90%29.43 "Hg10 mi
5:54 AM61 °FLight rain. Overcast.14 mph83%29.43 "Hg10 mi
4:54 AM61 °FLight rain. Mostly cloudy.10 mph78%29.42 "Hg10 mi
3:54 AM64 °FOvercast.10 mph65%29.43 "Hg10 mi
2:54 AM62 °FMostly cloudy.7 mph73%29.45 "Hg10 mi
1:54 AM61 °FMostly cloudy.7 mph75%29.48 "Hg10 mi
12:54 AM66 °FOvercast.10 mph52%29.50 "Hg10 mi
11:54 PM
Mon, Oct 12
66 °FOvercast.10 mph50%29.52 "Hg10 mi
Weather by CustomWeather, © 2015

See weather overviewHow to use our weather pages